This is the latest recevied weather packets stored in our database for station/object HK3BJ-11. If no packets are shown the sender has not sent any weather packets the latest 10 day(s).
| Time | Temp. | Humidity | Pressure | Rain* | Wind** | Luminosity | Snow |
|---|---|---|---|---|---|---|---|
| 1787780362 | 18.33° C | 66% | 1014 hPa | 0 mm | - | - | - |
| 1787779407 | 17.22° C | 66% | 1014 hPa | 0 mm | - | - | - |
| 1787778446 | 16.11° C | 66% | 1014 hPa | 0 mm | - | - | - |
| 1787777492 | 18.33° C | 67% | 1014 hPa | 0 mm | - | - | - |
| 1787776543 | 17.22° C | 67% | 1014 hPa | 0 mm | - | - | - |
| 1787775595 | 16.11° C | 67% | 1014 hPa | 0 mm | - | - | - |
| 1787774650 | 17.22° C | 69% | 1014 hPa | 0 mm | - | - | - |
| 1787773702 | 16.11° C | 69% | 1014 hPa | 0 mm | - | - | - |
| 1787772759 | 17.22° C | 67% | 1014 hPa | 0 mm | - | - | - |
| 1787771813 | 16.11° C | 67% | 1014 hPa | 0 mm | - | - | - |
| 1787770867 | 17.22° C | 69% | 1014 hPa | 0 mm | - | - | - |
| 1787769919 | 16.11° C | 69% | 1014 hPa | 0 mm | - | - | - |
| 1787768975 | 18.89° C | 66% | 1014 hPa | 0 mm | - | - | - |
| 1787768030 | 17.78° C | 66% | 1014 hPa | 0 mm | - | - | - |
| 1787767087 | 16.67° C | 66% | 1014 hPa | 0 mm | - | - | - |
| 1787766142 | 20° C | 65% | 1014 hPa | 0 mm | - | - | - |
| 1787765194 | 18.89° C | 65% | 1014 hPa | 0 mm | - | - | - |
| 1787764249 | 17.78° C | 65% | 1014 hPa | 0 mm | - | - | - |
| 1787763304 | 16.67° C | 65% | 1014 hPa | 0 mm | - | - | - |
| 1787762351 | 21.11° C | 69% | 1014 hPa | 0 mm | - | - | - |
| 1787761389 | 20° C | 69% | 1014 hPa | 0 mm | - | - | - |
| 1787760434 | 18.89° C | 69% | 1014 hPa | 0 mm | - | - | - |
| 1787759477 | 17.78° C | 69% | 1014 hPa | 0 mm | - | - | - |
| 1787758525 | 16.67° C | 69% | 1015 hPa | 0 mm | - | - | - |
| 1787757571 | 20.56° C | 78% | 1015 hPa | 0 mm | - | - | - |
* Rain latest hour (hover to see other rain measurements)
** Current wind speed in m/s (hover to see current wind gust speed)